Theta_e
320 320 320 321 322 322 322 322 323 323 323 323 324 324 324 324 324 330 323 324 329 344 336 331 327 336 332 334 333 329 316 313 317 318 322 329 326 331 334 331 335 337 338 346 353
319 319 319 320 321 322 322 322 322 322 322 323 323 324 324 324 332 327 331 345 350 341 324 321 321 325 323 327 326 326 316 319 323 323 322 326 328 329 330 329 335 338 343 349 351
318 318 319 319 319 321 321 321 321 321 322 322 323 324 324 326 330 325 346 342 341 334 322 323 325 325 321 325 326 327 319 322 322 324 325 325 326 330 328 325 331 336 341 345 347
318 318 318 318 319 319 320 321 321 321 321 322 323 324 324 330 317 331 345 340 341 325 324 323 322 321 320 320 325 321 325 324 324 324 324 323 328 326 328 329 334 342 343 344 345
317 317 317 318 318 318 319 320 320 320 320 321 323 324 324 323 325 333 343 331 326 327 323 322 321 322 319 323 323 323 323 323 324 323 324 325 323 325 326 336 338 342 342 343 344
316 316 316 317 318 318 319 319 319 319 320 322 324 322 327 314 331 332 325 324 326 325 323 323 322 325 322 322 322 325 323 322 323 323 323 321 322 326 328 335 339 340 340 342 343
315 315 316 316 317 318 318 318 318 319 320 323 326 326 319 316 325 332 327 324 326 326 322 323 324 322 325 322 326 324 320 322 322 321 320 323 319 320 327 333 338 339 339 341 344
315 315 316 316 316 317 317 316 317 319 323 326 325 327 318 323 327 326 329 325 327 327 326 326 326 322 322 326 323 320 321 315 320 319 320 320 314 321 329 332 335 339 338 340 344
314 315 315 315 316 316 315 315 317 322 325 329 328 327 315 320 319 323 327 323 324 325 326 324 323 320 323 318 317 319 312 313 315 318 317 318 316 323 326 330 332 337 339 339 343
314 314 314 315 315 314 314 315 323 321 325 330 327 317 318 314 321 323 326 325 322 321 320 319 318 315 317 316 309 313 313 315 312 316 316 315 316 321 326 326 329 336 339 340 341
314 314 314 314 314 313 316 324 320 321 321 315 317 315 314 319 323 320 324 322 321 319 313 317 312 310 314 317 317 316 315 313 315 316 315 315 316 319 324 325 327 332 339 341 342
313 313 314 313 313 313 316 318 316 315 311 317 316 317 318 319 315 319 324 317 316 312 315 313 308 313 315 316 316 314 313 313 316 316 315 315 315 319 322 325 325 327 336 340 343
312 313 312 312 312 315 319 317 321 320 311 313 316 315 316 317 314 316 320 318 314 311 312 310 311 314 312 312 312 313 312 313 312 315 317 314 313 317 320 325 330 332 334 341 342
312 312 311 309 311 316 317 320 321 320 306 309 310 313 316 316 312 319 322 318 314 311 312 311 314 310 310 309 313 310 315 314 312 310 307 315 305 316 319 322 327 332 333 338 344
312 311 311 309 313 313 319 320 321 320 297 310 311 319 317 312 315 315 322 318 312 311 312 309 310 309 309 310 313 310 315 312 312 311 311 310 308 314 319 319 322 332 337 341 347
311 310 310 316 318 316 318 320 319 304 296 306 311 309 310 312 313 316 316 320 319 314 314 312 315 313 311 313 314 315 313 313 313 311 304 309 309 309 315 319 320 334 341 343 345
310 309 310 316 314 318 318 316 304 299 309 305 307 310 309 309 310 312 312 311 310 307 308 310 310 314 315 312 315 313 310 304 303 302 302 312 308 311 318 323 325 334 341 344 346
309 308 313 315 319 318 317 309 299 305 306 309 308 309 307 310 309 310 310 309 313 312 308 306 303 310 315 313 312 310 310 305 300 300 303 311 304 310 321 328 332 339 344 346 345
307 318 317 319 318 318 311 301 302 306 308 305 308 305 307 309 309 309 309 310 312 313 308 306 306 314 314 316 315 313 308 313 308 309 305 308 311 317 319 326 330 336 343 344 345
314 315 316 319 319 313 307 300 306 308 308 308 304 307 304 307 307 307 308 311 311 314 316 312 306 312 313 316 316 314 317 307 308 300 299 303 307 310 316 321 328 332 338 345 348
314 312 316 318 315 308 302 305 308 310 308 306 306 306 307 307 308 307 307 311 312 313 315 313 311 310 314 311 310 311 310 312 311 309 303 299 304 318 318 322 326 330 339 341 337
313 307 315 316 304 306 305 309 297 307 308 307 307 308 307 308 307 308 307 310 314 314 309 314 311 306 310 315 316 315 313 312 306 306 309 306 304 316 322 325 328 334 337 337 338
313 313 316 313 301 304 308 306 306 305 306 306 305 307 309 307 305 309 310 313 313 312 312 314 309 305 306 311 314 312 314 315 315 314 309 304 305 321 324 326 330 334 335 339 339
314 305 308 308 309 307 305 304 303 307 305 306 306 308 306 306 310 308 309 313 313 313 323 318 312 309 304 308 312 310 310 312 312 308 309 307 311 314 320 325 331 336 339 339 338
313 310 312 302 304 306 307 305 303 303 306 307 305 305 305 304 306 307 310 313 315 315 314 314 309 311 311 311 312 311 311 311 310 312 308 306 310 311 323 326 329 335 337 335 336
311 309 311 313 309 306 302 305 304 305 306 304 303 306 307 305 307 308 312 312 313 316 315 315 309 311 308 311 311 309 311 312 311 312 312 312 313 317 325 330 330 332 334 333 335
316 316 312 306 308 306 306 306 305 307 308 309 308 306 306 308 313 314 316 318 319 319 316 315 312 310 305 309 309 305 310 312 313 314 314 310 320 325 326 329 331 332 331 332 333
Wind_Speed
17 17 17 16 16 16 15 16 17 17 17 17 17 15 14 16 18 7 6 6 4 8 4 10 12 12 12 15 18 16 14 13 9 7 11 12 14 6 5 13 6 6 12 17 17
16 17 17 18 17 16 16 16 17 18 18 18 16 16 15 14 8 16 6 8 2 5 10 11 11 13 12 15 11 12 12 7 11 7 9 12 6 10 7 12 10 9 13 16 17
16 17 18 18 18 17 17 17 17 18 18 18 18 15 14 13 10 9 8 8 7 8 13 9 12 10 16 17 10 15 5 4 7 8 6 5 6 7 5 15 12 14 15 16 14
17 18 18 18 18 19 18 18 18 18 18 17 18 17 14 8 4 9 7 6 8 12 9 10 12 15 17 16 4 14 2 4 7 3 1 3 4 6 6 16 9 15 17 16 16
18 18 18 19 20 20 21 20 19 19 18 17 16 14 11 11 6 10 7 9 11 12 11 12 14 15 19 15 3 13 5 3 4 3 8 3 1 3 4 14 10 14 17 17 14
18 18 19 20 20 20 20 20 20 19 18 16 14 12 9 14 4 6 4 7 7 10 7 11 10 8 15 6 11 4 4 5 5 5 5 10 5 10 8 9 12 15 17 17 15
18 19 19 21 22 21 21 21 20 19 17 14 10 7 11 7 2 2 8 6 1 6 7 3 7 13 9 13 6 11 13 17 14 2 8 6 13 13 7 10 13 14 14 15 14
20 20 20 21 22 23 22 23 22 18 13 10 5 11 11 4 5 6 8 9 8 7 8 3 8 13 11 11 10 17 20 13 9 1 5 9 14 35 11 9 12 13 13 13 14
20 21 21 22 22 23 23 24 21 13 11 9 8 9 9 5 10 10 8 9 6 8 7 5 12 14 13 13 17 15 2 26 10 5 3 7 14 14 3 8 8 11 13 14 14
19 20 20 22 22 23 26 18 6 9 8 10 9 9 8 5 3 3 6 7 8 7 8 11 11 14 15 15 16 14 15 24 3 1 6 12 10 10 7 5 6 12 13 14 15
19 20 21 22 22 22 18 6 8 8 12 15 3 11 2 4 5 10 8 9 10 10 13 12 11 15 19 18 22 14 12 10 6 3 10 10 10 3 4 6 5 4 11 12 13
20 21 22 23 23 22 10 7 8 6 11 12 13 12 6 3 6 9 9 10 12 14 14 7 13 16 12 11 9 10 12 11 8 3 10 13 9 6 6 1 6 6 12 11 14
20 20 22 23 24 10 7 6 7 7 9 12 12 14 13 13 13 11 13 13 10 14 14 15 6 4 5 12 12 14 15 14 7 3 11 11 17 12 5 3 1 4 4 10 13
19 19 20 27 7 4 5 3 7 3 8 14 11 10 9 9 17 14 12 10 10 12 13 12 16 4 9 14 13 16 17 13 6 9 14 3 8 12 8 4 3 7 5 8 13
19 19 19 11 13 7 7 6 6 5 9 9 12 6 9 14 5 16 12 12 13 11 7 14 13 11 14 14 13 15 5 4 10 13 14 12 8 7 9 8 7 10 11 12 13
19 19 20 6 8 8 7 7 6 9 11 9 8 12 14 18 12 8 13 13 10 10 11 19 1 12 17 15 9 12 7 7 10 13 13 14 3 8 10 10 5 13 13 11 12
20 17 10 9 2 6 7 9 9 12 7 8 11 11 16 16 19 15 15 18 14 12 13 15 14 12 12 8 12 12 13 10 12 12 9 9 4 5 8 10 7 10 13 12 13
22 18 9 10 6 7 7 10 13 12 20 4 5 9 11 14 18 18 14 16 19 17 15 13 15 16 13 17 11 15 17 11 11 7 6 7 5 3 10 9 9 12 13 13 13
25 8 9 6 6 6 9 13 12 15 5 2 11 12 14 11 13 18 18 17 18 19 12 7 14 16 15 14 15 15 16 15 10 9 9 5 10 9 9 11 8 13 13 12 13
7 6 6 2 6 8 10 16 15 2 6 7 14 11 14 15 15 16 18 16 17 15 14 10 11 12 14 8 8 14 6 11 8 11 13 5 3 8 11 14 10 11 12 11 10
7 7 7 7 7 9 12 17 18 7 5 10 12 12 14 6 10 16 12 14 15 15 12 17 8 10 10 12 15 12 12 9 15 6 7 2 11 12 10 6 10 7 14 10 10
8 6 7 7 9 10 12 17 5 5 10 12 6 10 9 6 9 17 13 6 15 16 17 18 10 13 12 15 21 17 12 16 10 11 8 12 10 3 10 9 1 14 10 9 7
7 3 5 8 8 9 11 5 6 10 10 11 11 10 2 9 5 11 9 10 1 13 10 13 9 11 15 10 8 11 16 10 9 10 9 12 5 10 10 8 5 12 11 8 7
7 6 6 8 10 10 14 11 14 12 14 8 8 9 8 11 8 7 9 3 5 12 9 7 13 13 12 15 11 19 18 18 16 12 13 9 13 1 8 12 7 9 8 8 6
6 3 6 8 10 10 1 5 11 13 11 12 14 16 15 13 12 12 13 9 10 5 9 10 12 16 19 18 13 6 13 16 18 18 17 11 16 8 1 7 8 9 6 6 6
7 5 4 2 4 5 6 11 11 10 9 10 14 14 18 15 13 8 7 9 12 14 12 16 13 15 18 19 19 10 13 10 16 18 14 9 15 9 10 9 8 8 7 6 4
2 3 7 7 9 10 9 7 4 5 9 13 11 12 11 6 9 14 7 9 11 10 8 12 13 15 16 20 19 16 16 13 13 14 12 12 17 18 12 10 7 5 3 3 2
Wind_Direction
358 353 354 349 349 340 333 331 330 325 324 324 323 322 320 316 304 208 248 52 140 160 229 205 219 232 243 252 250 279 49 303 102 57 122 133 111 85 64 118 69 70 71 118 146
354 351 346 348 343 332 331 330 328 323 323 320 318 320 321 326 274 233 117 114 169 182 230 210 215 223 237 244 247 252 126 234 34 45 19 101 325 114 179 120 129 115 114 138 154
352 348 343 346 334 328 331 326 323 321 318 317 315 315 317 314 263 99 113 143 205 239 257 273 275 250 248 266 261 289 25 55 86 39 15 93 173 148 235 137 132 138 154 159 164
349 343 343 336 332 329 329 323 322 318 314 314 313 313 315 242 253 73 119 180 221 252 230 229 243 245 248 252 228 280 60 327 52 91 293 21 105 141 294 83 93 130 164 165 178
344 340 339 333 332 329 325 320 320 315 311 312 310 318 302 230 76 126 170 191 220 218 230 228 240 237 254 263 283 256 151 240 214 126 331 11 347 1 185 117 130 146 163 175 178
342 338 337 334 329 327 321 320 316 309 308 306 305 311 253 266 84 125 211 208 241 231 208 231 260 316 294 295 275 316 270 243 237 130 222 284 229 182 171 138 144 171 168 178 178
341 338 335 333 330 322 320 315 309 306 300 297 296 283 269 288 338 214 213 244 259 290 254 194 282 259 250 259 236 265 246 222 204 144 282 239 264 314 171 141 162 186 177 176 175
339 337 333 332 326 320 319 312 307 303 292 291 285 262 276 101 303 231 236 229 214 232 263 301 281 274 274 304 253 247 241 259 78 106 100 285 92 235 108 155 171 189 183 177 180
338 335 332 328 326 321 314 307 297 290 279 275 251 234 270 132 215 222 219 256 194 231 226 282 262 261 239 244 245 221 284 318 146 108 318 240 298 179 103 142 177 181 188 184 184
336 333 329 327 324 321 315 285 280 295 223 238 264 265 220 227 118 260 233 262 258 240 234 224 234 237 229 234 243 233 219 200 214 58 327 279 237 264 108 176 212 175 192 192 185
335 332 328 325 322 321 323 261 218 192 223 258 51 267 143 209 203 217 193 221 241 240 250 196 242 229 240 226 266 333 324 348 332 41 277 291 307 57 113 224 189 196 181 202 193
336 333 328 324 319 314 280 291 36 336 299 259 248 258 269 264 243 219 194 221 210 240 220 229 228 249 246 320 298 262 273 260 256 250 281 285 298 119 209 132 325 294 174 205 181
334 330 326 321 317 286 299 23 328 310 259 261 218 234 220 209 237 217 200 214 231 233 243 248 248 84 257 247 255 251 260 259 264 175 249 257 254 139 168 215 318 312 303 155 182
330 328 326 322 291 344 236 2 310 297 269 188 204 217 197 225 229 237 190 227 225 252 229 249 254 213 224 246 230 256 238 248 281 256 274 178 302 167 154 153 97 68 103 144 152
327 325 322 329 316 244 28 317 317 243 266 134 134 84 209 205 88 186 194 204 248 211 261 226 229 204 238 233 234 259 336 235 243 265 267 286 245 129 193 138 62 74 83 94 111
323 322 324 210 222 291 298 298 243 230 245 153 159 196 195 210 219 127 197 228 242 251 210 268 159 250 233 232 250 265 241 241 253 257 255 235 265 302 68 52 29 103 99 119 129
320 314 293 308 359 336 288 237 226 242 127 198 197 199 207 191 216 192 192 203 219 215 223 217 226 222 247 222 214 228 226 226 220 217 246 91 248 334 90 68 51 101 118 122 121
317 313 191 261 314 285 246 223 244 239 243 60 299 197 229 218 200 205 213 213 220 233 273 210 200 209 178 236 198 215 244 258 284 271 202 132 234 157 78 100 121 89 112 127 133
311 203 228 179 222 249 234 225 217 256 291 162 223 245 219 226 234 212 218 220 216 223 246 241 242 183 205 209 249 207 224 261 300 269 291 259 164 154 146 126 131 111 131 136 141
294 241 156 169 209 223 232 244 238 344 353 273 259 229 235 193 201 234 206 230 230 206 225 268 273 178 182 246 235 275 226 223 231 271 257 248 211 133 170 152 130 145 127 137 151
247 229 106 165 206 218 224 231 245 143 268 265 265 268 259 298 207 226 221 222 221 225 222 237 236 210 162 201 220 202 248 257 282 271 311 104 305 81 87 72 149 126 123 153 160
279 233 133 197 207 216 227 236 3 270 214 252 278 298 293 271 257 252 217 234 191 231 204 223 229 254 207 221 224 262 226 223 250 221 265 296 143 179 127 131 225 119 141 150 137
254 85 160 227 228 206 226 244 234 245 240 232 234 240 271 267 257 273 244 78 188 254 209 212 231 236 248 172 213 248 249 265 262 267 253 255 120 149 132 118 131 136 147 155 162
275 197 148 208 278 300 216 216 216 217 267 251 267 273 250 250 234 275 247 206 239 253 359 285 245 241 253 231 246 194 232 239 243 243 243 229 144 338 14 121 125 133 151 168 182
248 298 11 193 211 229 247 284 228 233 205 229 236 241 244 240 247 235 244 252 192 202 248 241 247 250 256 273 282 209 207 227 232 239 248 167 319 56 275 100 118 132 161 168 167
307 315 185 345 316 237 170 239 238 238 258 220 234 252 219 239 260 281 303 234 238 175 228 226 234 254 263 254 263 237 259 226 219 236 236 255 148 189 229 96 121 133 149 149 160
16 232 275 127 202 229 222 227 260 285 267 254 277 239 258 264 287 297 321 309 299 306 225 226 238 238 247 243 247 226 243 209 217 228 251 241 134 161 116 100 116 129 148 166 167